Trieste, Italy

8:40 AM CEST on May 24, 2018 (GMT +0200)
Trieste

Weather History for LIVT - November, 2012

Change the Weather History Date:

Friday, November 16, 2012

  Actual Average Record
Temperature  
Mean Temperature 50 °F -  
Max Temperature 54 °F 50 °F 70 °F (2014)
Min Temperature 46 °F 43 °F 37 °F (2001)
Degree Days  
Heating Degree Days 15    
Moisture  
Dew Point 35 °F    
Average Humidity 57    
Maximum Humidity 62    
Minimum Humidity 40    
Precipitation  
Precipitation 0.00 in 0.13 in - ()
Sea Level Pressure  
Sea Level Pressure 30.15 in    
Wind  
Wind Speed 14 mph ()    
Max Wind Speed 18 mph    
Max Gust Speed 36 mph    
Visibility 12.0 miles    
Events      
Averages and records for this station are not official NWS values.
T = Trace of Precipitation, MM = Missing Value Source: Averaged Metar Reports

Daily Weather History Graph

Daily Weather History Graph

Search for Another Location

Airport or City:

Astronomy

Nov. 16, 2012 Rise Set
Actual Time 7:06 AM CET 4:33 PM CET
Civil Twilight 6:33 AM CET 5:05 PM CET
Nautical Twilight 5:57 AM CET 5:41 PM CET
Astronomical Twilight 5:22 AM CET 6:16 PM CET
Moon 9:47 AM CET (11/16) 7:10 PM CET (11/16)
Length of Visible Light 10h 31m
Length of Day
9h 26m
Waxing Crescent, 9% of the Moon is Illuminated
Nov 16
Waxing Crescent
Nov 20
First Quarter
Nov 28
Full
Dec 6
Last Quarter
Dec 13
New

Hourly Weather History & Observations

Time (CET) Temp. Windchill Dew Point Humidity Pressure Visibility Wind Dir Wind Speed Gust Speed Precip Events Conditions
12:55 AM 48.2 °F - 35.6 °F 62% 30.15 in - NE 15.0 mph 33.4 mph N/A   Clear
1:00 AM 49 °F - 36 °F 49% 30.17 in 12 mi NE 15.0 mph - -  
1:55 AM 32.0 °F 21.6 °F 19.4 °F 60% 30.15 in - ENE 15.0 mph 29.9 mph N/A   Clear
2:55 AM 48.2 °F - 35.6 °F 62% 30.15 in - ENE 13.8 mph 28.8 mph N/A   Clear
3:55 AM 48.2 °F - 35.6 °F 62% 30.12 in - ENE 16.1 mph 35.7 mph N/A   Clear
4:55 AM 48.2 °F - 35.6 °F 62% 30.15 in - ENE 17.3 mph 32.2 mph N/A   Clear
5:55 AM 48.2 °F - 35.6 °F 62% 30.15 in - ENE 17.3 mph - N/A   Clear
6:55 AM 48.2 °F - 35.6 °F 62% 30.15 in - ENE 18.4 mph 33.4 mph N/A   Clear
7:00 AM 48 °F - 35 °F 51% 30.16 in 12 mi ENE 18.4 mph - -  
7:55 AM 48.2 °F - 35.6 °F 62% 30.15 in - ENE 17.3 mph 31.1 mph N/A   Clear
8:55 AM 50.0 °F - 35.6 °F 58% 30.15 in - ENE 17.3 mph 34.5 mph N/A   Clear
10:55 AM 51.8 °F - 37.4 °F 58% 30.18 in - ENE 15.0 mph 35.7 mph N/A   Clear
11:55 AM 51.8 °F - 35.6 °F 54% 30.15 in - ENE 18.4 mph 33.4 mph N/A   Clear
12:55 PM 53.6 °F - 35.6 °F 51% 30.15 in - ENE 16.1 mph 32.2 mph N/A   Clear
1:00 PM 53 °F - 36 °F 40% 30.17 in 12 mi ENE 16.1 mph - -  
1:55 PM 53.6 °F - 35.6 °F 51% 30.15 in - ENE 17.3 mph 31.1 mph N/A   Clear
2:55 PM 53.6 °F - 35.6 °F 51% 30.15 in - ENE 16.1 mph 28.8 mph N/A   Clear
3:55 PM 51.8 °F - 35.6 °F 54% 30.12 in - ENE 15.0 mph 29.9 mph N/A   Clear
4:55 PM 50.0 °F - 35.6 °F 58% 30.15 in - ENE 16.1 mph 31.1 mph N/A   Clear
5:55 PM 48.2 °F - 35.6 °F 62% 30.15 in - ENE 15.0 mph 33.4 mph N/A   Clear
6:55 PM 48.2 °F - 35.6 °F 62% 30.15 in - ENE 15.0 mph 26.5 mph N/A   Clear
7:00 PM 48 °F - 35 °F 50% 30.16 in 12 mi ENE 15.0 mph - -  
7:55 PM 48.2 °F - 33.8 °F 58% 30.15 in - ENE 15.0 mph 31.1 mph N/A   Clear
8:55 PM 48.2 °F - 33.8 °F 58% 30.15 in - ENE 13.8 mph 28.8 mph N/A   Clear
9:55 PM 46.4 °F 40.4 °F 33.8 °F 62% 30.12 in - ENE 13.8 mph 26.5 mph N/A   Clear
10:55 PM 46.4 °F 40.4 °F 33.8 °F 62% 30.12 in - ENE 13.8 mph - N/A   Clear
11:55 PM 46.4 °F 40.4 °F 33.8 °F 62% 30.12 in - ENE 13.8 mph - N/A   Clear